![]() |
EMODnet Physics ERDDAP
Easier access to scientific data |
log in|
Brought to you by EMODnet Physics |
| Dataset Title: | NDBC - Collection of dew point temperature (DEWT) TimeSeries - IN SITU MultiPointTimeSeriesObservation
|
| Institution: | NDBC (Dataset ID: TS_DEWT_NDBC) |
| Information: | Summary
| License
| FGDC
| ISO 19115
| Metadata
| Background
| Subset
| Data Access Form
| Make a graph
|
| Name | Last modified | Size | Description | |
|---|---|---|---|---|
| Parent Directory | - | - | ||
| 46083_TS_DEWT_012003.nc | 17-Jan-2026 19:06 | 1627823 | ||
| 46083_TS_DEWT_012004.nc | 17-Jan-2026 19:09 | 1625195 | ||
| 46083_TS_DEWT_012008.nc | 17-Jan-2026 19:17 | 1627199 | ||
| 46083_TS_DEWT_012009.nc | 17-Jan-2026 19:20 | 1627773 | ||
| 46083_TS_DEWT_012010.nc | 17-Jan-2026 19:23 | 1627254 | ||
| 46083_TS_DEWT_012016.nc | 17-Jan-2026 20:26 | 1626965 | ||
| 46083_TS_DEWT_012017.nc | 17-Jan-2026 20:29 | 1627616 | ||
| 46083_TS_DEWT_012018.nc | 17-Jan-2026 20:33 | 1477862 | ||
| 46083_TS_DEWT_012022.nc | 17-Jan-2026 20:48 | 1627590 | ||
| 46083_TS_DEWT_012024.nc | 17-Jan-2026 20:58 | 1625970 | ||
| 46083_TS_DEWT_022003.nc | 17-Jan-2026 19:07 | 1627803 | ||
| 46083_TS_DEWT_022004.nc | 17-Jan-2026 19:09 | 1627808 | ||
| 46083_TS_DEWT_022008.nc | 17-Jan-2026 19:17 | 1627522 | ||
| 46083_TS_DEWT_022009.nc | 17-Jan-2026 19:20 | 1475335 | ||
| 46083_TS_DEWT_022010.nc | 17-Jan-2026 19:23 | 1475608 | ||
| 46083_TS_DEWT_022016.nc | 17-Jan-2026 20:26 | 1472127 | ||
| 46083_TS_DEWT_022017.nc | 17-Jan-2026 20:30 | 1477944 | ||
| 46083_TS_DEWT_022018.nc | 17-Jan-2026 20:33 | 1477782 | ||
| 46083_TS_DEWT_022022.nc | 17-Jan-2026 20:49 | 1477927 | ||
| 46083_TS_DEWT_022024.nc | 17-Jan-2026 20:58 | 1476901 | ||
| 46083_TS_DEWT_032003.nc | 17-Jan-2026 19:07 | 1477820 | ||
| 46083_TS_DEWT_032004.nc | 17-Jan-2026 19:10 | 1477711 | ||
| 46083_TS_DEWT_032008.nc | 17-Jan-2026 19:17 | 1477854 | ||
| 46083_TS_DEWT_032009.nc | 17-Jan-2026 19:20 | 1477170 | ||
| 46083_TS_DEWT_032010.nc | 17-Jan-2026 19:24 | 1460585 | ||
| 46083_TS_DEWT_032016.nc | 17-Jan-2026 20:26 | 1476881 | ||
| 46083_TS_DEWT_032017.nc | 17-Jan-2026 20:30 | 1477920 | ||
| 46083_TS_DEWT_032018.nc | 17-Jan-2026 20:34 | 1470691 | ||
| 46083_TS_DEWT_032022.nc | 17-Jan-2026 20:49 | 1477787 | ||
| 46083_TS_DEWT_032024.nc | 17-Jan-2026 20:59 | 1477332 | ||
| 46083_TS_DEWT_042003.nc | 17-Jan-2026 19:07 | 1151542 | ||
| 46083_TS_DEWT_042004.nc | 17-Jan-2026 19:10 | 1627754 | ||
| 46083_TS_DEWT_042008.nc | 17-Jan-2026 19:18 | 1627724 | ||
| 46083_TS_DEWT_042009.nc | 17-Jan-2026 19:20 | 1627740 | ||
| 46083_TS_DEWT_042010.nc | 17-Jan-2026 19:24 | 1627860 | ||
| 46083_TS_DEWT_042016.nc | 17-Jan-2026 20:27 | 1626639 | ||
| 46083_TS_DEWT_042017.nc | 17-Jan-2026 20:30 | 1627810 | ||
| 46083_TS_DEWT_042022.nc | 17-Jan-2026 20:49 | 1627736 | ||
| 46083_TS_DEWT_042024.nc | 17-Jan-2026 20:59 | 1627376 | ||
| 46083_TS_DEWT_052003.nc | 17-Jan-2026 19:07 | 1627104 | ||
| 46083_TS_DEWT_052004.nc | 17-Jan-2026 19:10 | 1627552 | ||
| 46083_TS_DEWT_052008.nc | 17-Jan-2026 19:18 | 1477905 | ||
| 46083_TS_DEWT_052009.nc | 17-Jan-2026 19:21 | 1627555 | ||
| 46083_TS_DEWT_052010.nc | 17-Jan-2026 19:24 | 1627340 | ||
| 46083_TS_DEWT_052016.nc | 17-Jan-2026 20:27 | 1627849 | ||
| 46083_TS_DEWT_052017.nc | 17-Jan-2026 20:30 | 1476490 | ||
| 46083_TS_DEWT_052022.nc | 17-Jan-2026 20:50 | 1477639 | ||
| 46083_TS_DEWT_052023.nc | 17-Jan-2026 20:53 | 1477643 | ||
| 46083_TS_DEWT_052024.nc | 17-Jan-2026 20:59 | 1477951 | ||
| 46083_TS_DEWT_062003.nc | 17-Jan-2026 19:08 | 1476969 | ||
| 46083_TS_DEWT_062004.nc | 17-Jan-2026 19:10 | 1477288 | ||
| 46083_TS_DEWT_062005.nc | 17-Jan-2026 19:11 | 1477165 | ||
| 46083_TS_DEWT_062006.nc | 17-Jan-2026 19:14 | 1477812 | ||
| 46083_TS_DEWT_062007.nc | 17-Jan-2026 19:15 | 1477187 | ||
| 46083_TS_DEWT_062008.nc | 17-Jan-2026 19:18 | 1477727 | ||
| 46083_TS_DEWT_062009.nc | 17-Jan-2026 19:21 | 1477221 | ||
| 46083_TS_DEWT_062010.nc | 17-Jan-2026 19:24 | 1477206 | ||
| 46083_TS_DEWT_062016.nc | 17-Jan-2026 20:27 | 1472501 | ||
| 46083_TS_DEWT_062017.nc | 17-Jan-2026 20:31 | 1477959 | ||
| 46083_TS_DEWT_062021.nc | 17-Jan-2026 20:46 | 1477985 | ||
| 46083_TS_DEWT_062022.nc | 17-Jan-2026 20:50 | 1477185 | ||
| 46083_TS_DEWT_062023.nc | 17-Jan-2026 20:54 | 1626711 | ||
| 46083_TS_DEWT_062024.nc | 17-Jan-2026 20:59 | 1625631 | ||
| 46083_TS_DEWT_062025.nc | 17-Jan-2026 21:01 | 1627523 | ||
| 46083_TS_DEWT_072001.nc | 16-Dec-2024 06:42 | 1627832 | ||
| 46083_TS_DEWT_072002.nc | 17-Jan-2026 19:05 | 1627716 | ||
| 46083_TS_DEWT_072003.nc | 17-Jan-2026 19:08 | 1627759 | ||
| 46083_TS_DEWT_072004.nc | 17-Jan-2026 19:11 | 1476615 | ||
| 46083_TS_DEWT_072005.nc | 17-Jan-2026 19:12 | 1626907 | ||
| 46083_TS_DEWT_072006.nc | 17-Jan-2026 19:14 | 1627348 | ||
| 46083_TS_DEWT_072007.nc | 17-Jan-2026 19:15 | 1627557 | ||
| 46083_TS_DEWT_072008.nc | 17-Jan-2026 19:18 | 1478050 | ||
| 46083_TS_DEWT_072009.nc | 17-Jan-2026 19:21 | 1627435 | ||
| 46083_TS_DEWT_072010.nc | 17-Jan-2026 19:25 | 1627743 | ||
| 46083_TS_DEWT_072015.nc | 17-Jan-2026 20:23 | 1627187 | ||
| 46083_TS_DEWT_072016.nc | 17-Jan-2026 20:27 | 1475766 | ||
| 46083_TS_DEWT_072017.nc | 17-Jan-2026 20:31 | 1460228 | ||
| 46083_TS_DEWT_072021.nc | 17-Jan-2026 20:46 | 1626648 | ||
| 46083_TS_DEWT_072022.nc | 17-Jan-2026 20:50 | 1468374 | ||
| 46083_TS_DEWT_072023.nc | 17-Jan-2026 20:55 | 1474127 | ||
| 46083_TS_DEWT_072024.nc | 17-Jan-2026 21:00 | 429822 | ||
| 46083_TS_DEWT_072025.nc | 17-Jan-2026 21:02 | 429628 | ||
| 46083_TS_DEWT_082001.nc | 16-Dec-2024 06:42 | 1627242 | ||
| 46083_TS_DEWT_082002.nc | 17-Jan-2026 19:05 | 1626690 | ||
| 46083_TS_DEWT_082003.nc | 17-Jan-2026 19:08 | 1627032 | ||
| 46083_TS_DEWT_082004.nc | 17-Jan-2026 19:11 | 1627608 | ||
| 46083_TS_DEWT_082005.nc | 17-Jan-2026 19:12 | 1158208 | ||
| 46083_TS_DEWT_082006.nc | 17-Jan-2026 19:14 | 1626067 | ||
| 46083_TS_DEWT_082007.nc | 17-Jan-2026 19:16 | 1627504 | ||
| 46083_TS_DEWT_082008.nc | 17-Jan-2026 19:18 | 1465610 | ||
| 46083_TS_DEWT_082009.nc | 17-Jan-2026 19:21 | 1627692 | ||
| 46083_TS_DEWT_082010.nc | 17-Jan-2026 19:25 | 1627750 | ||
| 46083_TS_DEWT_082011.nc | 17-Jan-2026 19:28 | 1153582 | ||
| 46083_TS_DEWT_082015.nc | 17-Jan-2026 20:23 | 1470649 | ||
| 46083_TS_DEWT_082016.nc | 17-Jan-2026 20:28 | 1457624 | ||
| 46083_TS_DEWT_082017.nc | 17-Jan-2026 20:31 | 1163320 | ||
| 46083_TS_DEWT_082021.nc | 17-Jan-2026 20:47 | 429155 | ||
| 46083_TS_DEWT_082022.nc | 17-Jan-2026 20:51 | 428808 | ||
| 46083_TS_DEWT_082023.nc | 17-Jan-2026 20:56 | 1470741 | ||
| 46083_TS_DEWT_082024.nc | 17-Jan-2026 21:00 | 1470322 | ||
| 46083_TS_DEWT_082025.nc | 17-Jan-2026 21:03 | 1474245 | ||
| 46083_TS_DEWT_092001.nc | 16-Dec-2024 06:43 | 1470455 | ||
| 46083_TS_DEWT_092002.nc | 17-Jan-2026 19:06 | 1470715 | ||
| 46083_TS_DEWT_092003.nc | 17-Jan-2026 19:08 | 1470553 | ||
| 46083_TS_DEWT_092004.nc | 17-Jan-2026 19:11 | 1474099 | ||
| 46083_TS_DEWT_092006.nc | 17-Jan-2026 19:15 | 1150535 | ||
| 46083_TS_DEWT_092007.nc | 17-Jan-2026 19:16 | 1470656 | ||
| 46083_TS_DEWT_092008.nc | 17-Jan-2026 19:19 | 1469382 | ||
| 46083_TS_DEWT_092009.nc | 17-Jan-2026 19:22 | 420854 | ||
| 46083_TS_DEWT_092011.nc | 17-Jan-2026 19:28 | 1627604 | ||
| 46083_TS_DEWT_092015.nc | 17-Jan-2026 20:24 | 1474498 | ||
| 46083_TS_DEWT_092016.nc | 17-Jan-2026 20:28 | 1625200 | ||
| 46083_TS_DEWT_092017.nc | 17-Jan-2026 20:32 | 429840 | ||
| 46083_TS_DEWT_092021.nc | 17-Jan-2026 20:47 | 429820 | ||
| 46083_TS_DEWT_092022.nc | 17-Jan-2026 20:51 | 1627614 | ||
| 46083_TS_DEWT_092023.nc | 17-Jan-2026 20:56 | 1476959 | ||
| 46083_TS_DEWT_092024.nc | 17-Jan-2026 21:00 | 1626387 | ||
| 46083_TS_DEWT_092025.nc | 17-Jan-2026 21:03 | 1627469 | ||
| 46083_TS_DEWT_102001.nc | 16-Dec-2024 06:43 | 1627607 | ||
| 46083_TS_DEWT_102002.nc | 17-Jan-2026 19:06 | 1627429 | ||
| 46083_TS_DEWT_102003.nc | 17-Jan-2026 19:08 | 1627617 | ||
| 46083_TS_DEWT_102004.nc | 17-Jan-2026 19:11 | 1160041 | ||
| 46083_TS_DEWT_102006.nc | 17-Jan-2026 19:15 | 1627426 | ||
| 46083_TS_DEWT_102007.nc | 17-Jan-2026 19:16 | 1627889 | ||
| 46083_TS_DEWT_102008.nc | 17-Jan-2026 19:19 | 1473766 | ||
| 46083_TS_DEWT_102009.nc | 17-Jan-2026 19:22 | 1474999 | ||
| 46083_TS_DEWT_102011.nc | 17-Jan-2026 19:29 | 1477863 | ||
| 46083_TS_DEWT_102015.nc | 17-Jan-2026 20:24 | 429499 | ||
| 46083_TS_DEWT_102016.nc | 17-Jan-2026 20:28 | 596236 | ||
| 46083_TS_DEWT_102017.nc | 17-Jan-2026 20:32 | 1477988 | ||
| 46083_TS_DEWT_102021.nc | 17-Jan-2026 20:47 | 1474708 | ||
| 46083_TS_DEWT_102022.nc | 17-Jan-2026 20:51 | 1477101 | ||
| 46083_TS_DEWT_102023.nc | 17-Jan-2026 20:57 | 1472102 | ||
| 46083_TS_DEWT_102024.nc | 17-Jan-2026 21:01 | 1477578 | ||
| 46083_TS_DEWT_102025.nc | 17-Jan-2026 21:04 | 1150008 | ||
| 46083_TS_DEWT_112001.nc | 16-Dec-2024 06:43 | 1477820 | ||
| 46083_TS_DEWT_112002.nc | 17-Jan-2026 19:06 | 1477669 | ||
| 46083_TS_DEWT_112003.nc | 17-Jan-2026 19:09 | 1477883 | ||
| 46083_TS_DEWT_112007.nc | 17-Jan-2026 19:16 | 1477261 | ||
| 46083_TS_DEWT_112008.nc | 17-Jan-2026 19:19 | 1459042 | ||
| 46083_TS_DEWT_112009.nc | 17-Jan-2026 19:22 | 1627624 | ||
| 46083_TS_DEWT_112015.nc | 17-Jan-2026 20:25 | 1627083 | ||
| 46083_TS_DEWT_112016.nc | 17-Jan-2026 20:29 | 429839 | ||
| 46083_TS_DEWT_112017.nc | 17-Jan-2026 20:32 | 1477715 | ||
| 46083_TS_DEWT_112021.nc | 17-Jan-2026 20:48 | 1627195 | ||
| 46083_TS_DEWT_112023.nc | 17-Jan-2026 20:57 | 1626601 | ||
| 46083_TS_DEWT_122001.nc | 16-Dec-2024 06:43 | 1626675 | ||
| 46083_TS_DEWT_122002.nc | 17-Jan-2026 19:06 | 1627585 | ||
| 46083_TS_DEWT_122003.nc | 17-Jan-2026 19:09 | 1627392 | ||
| 46083_TS_DEWT_122007.nc | 17-Jan-2026 19:17 | 1627596 | ||
| 46083_TS_DEWT_122008.nc | 17-Jan-2026 19:19 | 1627735 | ||
| 46083_TS_DEWT_122009.nc | 17-Jan-2026 19:23 | 1625269 | ||
| 46083_TS_DEWT_122015.nc | 17-Jan-2026 20:25 | 1627582 | ||
| 46083_TS_DEWT_122016.nc | 17-Jan-2026 20:29 | 1627895 | ||
| 46083_TS_DEWT_122017.nc | 17-Jan-2026 20:33 | 1469137 | ||
| 46083_TS_DEWT_122021.nc | 17-Jan-2026 20:48 | 1477013 | ||
| 46083_TS_DEWT_122023.nc | 17-Jan-2026 20:58 | 1477022 | ||